Wetbulb
61.91 64.36 64.25 62.42 64.30 67.07 68.24 68.51 68.80 69.92 70.21 69.73 70.80 71.29 71.37 71.81 72.43 72.05 71.91 71.14 69.51 66.43 65.59 66.14 68.20 68.19 66.94 66.36 65.99 65.63 64.65 64.26 61.77 63.01 63.06 64.24 64.56 64.37 63.79 64.72 63.88 64.83 64.68
58.87 61.49 64.41 62.98 63.44 66.80 67.55 67.58 68.57 69.59 69.92 69.75 70.62 70.95 71.35 71.88 71.91 71.44 70.70 70.12 68.17 64.90 65.56 67.84 67.50 66.42 67.10 66.78 65.87 65.85 65.09 64.89 63.39 62.50 61.81 62.61 63.00 64.32 64.19 63.80 63.24 64.21 64.44
57.07 59.10 61.15 63.87 63.35 65.96 66.92 67.76 68.78 69.31 69.60 70.09 70.43 70.62 71.07 71.43 71.36 71.19 70.62 68.91 67.19 66.24 66.53 68.04 67.38 66.79 66.24 65.84 65.75 65.29 65.28 64.89 64.29 63.20 61.79 62.72 62.15 63.48 62.01 62.26 61.30 63.20 64.16
55.31 54.91 58.31 64.36 63.22 65.88 67.30 68.94 69.48 69.21 69.37 70.07 70.44 70.77 71.17 71.25 70.78 70.57 69.82 67.36 65.81 65.25 66.67 67.99 67.19 66.42 66.29 66.24 65.75 66.08 65.73 64.38 63.87 62.93 62.29 61.10 60.89 61.77 62.62 58.87 58.74 61.10 61.20
52.79 53.46 57.45 65.92 62.73 64.78 66.95 68.26 68.97 69.31 69.63 70.03 70.26 70.81 71.38 70.65 69.62 70.05 67.70 65.72 65.54 65.36 67.27 66.86 67.10 65.11 61.67 63.77 65.67 65.89 65.63 64.02 62.96 62.15 60.62 59.93 59.50 58.72 59.96 60.71 59.97 59.58 60.23
53.04 53.22 56.91 66.31 62.94 65.29 67.16 68.16 68.87 68.82 69.23 69.91 70.14 70.29 70.28 68.99 53.57 56.05 63.53 65.92 66.28 66.60 66.07 66.24 66.40 60.26 59.50 54.80 55.94 57.78 62.65 64.71 62.12 61.69 59.57 60.28 60.03 59.45 59.98 61.42 59.30 58.31 57.69
51.90 53.55 57.98 65.96 64.91 65.56 67.32 67.75 67.21 67.38 68.00 68.82 70.15 69.82 69.95 69.43 51.28 52.39 56.11 66.71 67.05 66.93 66.87 66.39 65.17 64.64 62.33 63.64 54.32 52.91 54.71 54.08 57.84 63.05 59.92 61.45 61.26 59.20 59.85 59.06 58.55 60.28 58.76
51.28 53.75 59.45 65.12 65.51 66.37 66.98 66.10 66.74 67.21 67.32 68.15 68.94 70.19 69.29 66.38 49.25 49.74 53.21 67.39 67.05 66.78 66.97 66.65 66.04 65.54 64.74 64.05 63.56 63.12 63.71 63.33 61.44 62.17 61.21 63.37 62.54 60.32 62.66 60.74 62.10 60.82 59.70
51.53 56.29 59.29 64.26 64.63 64.56 64.52 66.20 66.98 66.36 66.85 67.50 68.68 66.54 64.63 57.66 46.50 47.26 57.59 66.78 65.81 65.54 65.67 65.85 65.73 65.19 51.30 48.71 62.96 61.02 60.64 60.80 50.67 51.25 52.24 52.29 50.72 51.68 58.01 60.73 56.73 57.15 57.62
54.77 59.08 59.99 62.77 64.80 65.08 66.60 66.59 65.89 66.14 66.01 66.25 62.81 66.73 58.69 60.64 43.96 46.72 58.03 65.53 64.81 64.22 64.42 63.52 49.94 59.40 44.72 45.09 63.09 60.78 59.01 57.87 56.79 56.43 56.13 53.24 53.07 54.22 50.87 62.24 58.90 57.42 57.90
54.99 60.09 61.07 63.65 64.66 65.39 64.84 64.45 64.75 64.23 64.40 61.93 59.64 60.18 61.70 60.75 52.80 45.81 49.44 65.24 64.24 62.57 61.28 60.10 60.66 46.72 43.82 43.46 49.91 61.63 58.07 57.59 55.43 57.77 56.97 57.71 59.46 58.96 59.36 61.82 63.36 62.02 59.66
57.62 59.20 62.86 65.19 64.49 63.65 62.94 63.13 63.17 63.25 61.47 59.62 59.93 59.02 58.43 57.75 50.66 45.89 47.44 54.11 56.29 62.86 61.53 60.84 58.37 43.44 42.01 42.91 50.71 45.09 45.09 52.74 58.17 57.86 56.89 56.49 57.12 57.93 59.19 60.35 61.76 62.52 62.49
59.45 59.51 62.85 63.68 62.86 62.78 61.51 61.01 61.29 61.02 59.83 60.22 60.53 58.37 56.96 57.62 56.28 44.65 44.91 46.54 50.14 62.40 62.41 54.53 43.57 41.46 41.82 45.81 43.08 43.46 47.03 58.60 58.00 57.53 56.11 56.31 57.89 59.62 60.23 59.82 62.19 62.07 61.53
58.07 58.81 62.52 61.37 61.30 62.04 61.72 62.20 61.42 61.32 61.52 61.10 59.54 58.06 57.50 57.79 58.03 56.74 55.22 53.88 48.52 54.84 48.67 52.11 49.64 48.84 47.81 49.90 49.48 52.77 60.60 60.95 59.84 58.14 58.09 58.87 58.75 57.38 57.21 59.41 59.56 59.47 58.70
57.91 60.19 60.18 60.43 60.78 57.75 57.86 62.74 64.23 65.03 61.28 61.20 60.91 60.55 58.52 58.11 58.73 54.22 55.29 59.66 61.06 54.33 53.16 54.40 55.53 55.07 54.10 55.93 57.66 59.64 60.49 59.02 58.72 58.67 58.35 57.67 56.93 56.88 56.50 57.09 58.18 59.61 58.78
57.52 59.63 59.07 57.45 57.27 58.17 57.28 53.39 41.36 45.48 45.63 45.99 49.52 57.40 60.00 50.61 44.18 44.36 44.00 43.82 43.27 44.54 56.74 55.73 54.86 55.17 55.21 56.39 57.42 57.88 59.20 56.63 58.51 58.20 57.70 56.90 56.03 55.63 55.75 56.94 58.37 59.01 57.30
58.43 59.28 58.88 56.69 57.95 59.06 58.93 57.74 53.35 47.01 41.00 40.90 42.37 44.18 46.54 46.30 42.01 41.82 41.64 41.46 42.01 47.97 57.65 55.87 55.25 55.91 56.33 57.17 57.65 58.85 58.66 59.02 58.57 57.77 57.42 57.29 56.93 56.34 54.92 56.52 57.32 56.44 57.20
60.66 51.21 58.82 60.23 60.77 61.14 61.23 59.42 58.57 57.52 56.15 54.44 42.28 45.21 41.56 42.19 41.46 40.56 40.56 44.60 53.32 53.92 58.13 56.61 55.73 57.13 57.53 57.50 57.85 59.07 59.70 58.66 58.01 57.80 57.79 58.31 58.72 56.20 55.47 56.21 58.24 57.29 58.28
59.01 59.99 61.66 61.56 61.87 60.23 60.62 60.14 59.96 59.00 57.40 53.51 50.37 44.57 41.16 39.27 39.47 40.01 42.91 57.70 56.94 56.99 56.71 57.35 57.40 57.93 58.65 59.50 59.73 58.11 57.93 57.61 57.52 57.94 57.85 57.84 57.53 57.22 57.31 56.09 55.60 46.67 50.36
60.01 51.26 56.94 61.39 59.19 59.55 59.65 59.36 58.82 57.90 57.13 57.54 57.35 50.73 49.11 51.69 54.38 56.72 58.37 58.41 58.17 57.50 56.75 57.49 58.46 58.96 59.16 58.72 58.15 58.10 58.49 57.80 57.70 57.86 57.68 57.49 57.43 57.07 56.68 56.42 56.51 55.87 55.40
60.12 59.24 50.27 60.55 59.03 58.71 58.74 58.37 58.52 58.23 58.11 57.94 54.50 50.35 43.27 57.18 56.31 57.47 58.05 57.09 56.79 57.49 56.75 57.91 58.85 60.68 59.69 61.31 60.03 59.71 58.43 58.25 58.13 58.23 57.77 57.41 57.58 57.28 58.02 58.44 57.77 57.47 56.89
61.71 61.87 62.63 61.98 59.52 58.39 57.98 58.20 57.97 57.83 56.32 54.56 51.74 46.85 38.38 57.81 58.81 58.75 58.11 58.26 59.39 59.73 59.05 58.20 58.73 60.10 61.35 60.84 59.47 58.78 58.37 58.25 58.42 58.49 58.21 58.51 58.73 58.47 57.98 57.45 57.09 56.63 56.94
63.44 63.04 61.32 58.80 58.92 52.22 57.49 58.57 57.49 56.29 54.84 54.01 53.81 54.55 57.00 58.22 57.78 53.51 50.86 50.52 52.08 51.96 52.59 54.36 54.81 53.47 54.15 56.41 60.37 60.16 59.19 58.80 59.27 59.93 59.38 58.99 58.61 58.38 58.31 57.59 58.30 57.19 57.22
63.58 62.72 59.68 58.06 58.11 57.71 58.09 57.35 56.06 50.26 55.02 55.31 55.67 56.99 56.87 52.82 49.68 47.86 45.37 45.57 45.29 46.25 45.16 45.32 45.32 46.23 47.44 50.24 52.16 52.18 56.35 55.85 61.20 60.98 60.53 59.94 59.46 56.77 60.00 59.36 58.50 58.61 58.37
63.36 62.71 60.87 57.65 57.32 56.80 55.78 55.63 55.52 55.27 55.31 54.37 53.06 50.95 49.13 46.89 44.44 43.17 42.42 41.56 42.20 41.72 41.73 42.55 42.02 41.83 43.33 45.18 46.53 46.92 37.75 35.84 52.50 46.97 58.05 57.09 54.14 52.87 52.71 51.97 50.92 49.58 49.30
63.31 62.28 59.19 58.14 56.93 56.15 56.08 55.57 55.36 53.34 51.94 50.37 48.46 45.95 44.75 43.51 41.36 40.62 40.05 39.81 38.50 37.60 37.27 38.88 38.97 38.68 38.43 38.11 38.42 34.75 34.57 35.52 41.10 38.79 50.80 48.89 47.66 45.98 45.35 44.21 43.78 43.72 43.57
MSLP
1001.45 1000.38 999.64 999.00 998.43 998.12 997.85 997.82 998.30 998.96 999.31 999.89 1000.61 1000.63 1001.13 1002.12 1003.13 1003.80 1004.16 1004.47 1005.32 1006.70 1007.20 1007.69 1007.96 1008.21 1008.13 1008.40 1008.74 1008.86 1009.13 1009.38 1009.34 1010.26 1010.94 1011.36 1011.31 1011.39 1011.71 1011.61 1011.79 1011.60 1011.79
1000.73 999.88 998.78 998.10 997.59 997.18 996.77 997.02 997.52 997.91 998.40 998.95 999.75 999.95 1000.68 1001.69 1002.56 1003.03 1003.75 1004.08 1005.12 1006.23 1006.79 1007.13 1007.56 1007.90 1008.06 1008.37 1008.52 1008.73 1009.00 1009.39 1009.44 1009.76 1010.76 1011.13 1011.32 1011.52 1011.75 1011.83 1011.92 1011.66 1011.84
1000.13 999.16 998.29 997.12 996.55 996.04 996.01 996.13 996.61 997.09 997.51 998.22 998.69 999.33 1000.26 1001.12 1001.96 1002.60 1003.24 1003.97 1004.98 1005.72 1006.32 1006.59 1007.11 1007.54 1007.76 1007.95 1008.33 1008.56 1008.87 1009.25 1009.62 1009.54 1010.34 1010.98 1011.42 1011.61 1011.87 1012.12 1012.19 1012.09 1012.06
999.64 998.58 997.36 995.93 995.48 995.24 995.23 995.56 995.72 996.07 996.78 997.48 998.11 999.03 1000.10 1000.86 1001.52 1002.33 1002.98 1003.99 1004.85 1005.57 1006.11 1006.40 1006.83 1007.17 1007.33 1007.74 1008.07 1008.41 1008.71 1009.02 1009.54 1009.64 1010.04 1010.73 1011.28 1011.63 1011.76 1012.25 1012.41 1012.53 1012.63
999.26 997.78 996.59 994.87 994.72 994.54 994.63 994.86 995.04 995.47 996.33 997.04 997.97 999.13 999.96 1000.61 1001.20 1001.99 1003.04 1003.80 1004.58 1005.34 1005.86 1006.22 1006.71 1006.94 1007.28 1007.58 1007.75 1008.15 1008.43 1008.73 1009.28 1009.39 1009.91 1010.59 1011.17 1011.51 1011.60 1012.12 1012.39 1012.71 1012.98
998.56 997.14 995.86 993.77 993.64 993.39 993.78 994.28 994.47 995.20 996.16 997.01 997.94 998.79 999.49 1000.23 1001.30 1002.05 1002.87 1003.62 1004.38 1004.96 1005.48 1006.05 1006.55 1007.17 1007.54 1007.78 1008.08 1008.23 1008.19 1008.44 1009.13 1009.20 1009.75 1009.94 1010.68 1011.12 1011.52 1011.76 1012.31 1012.55 1012.97
997.69 996.38 995.20 993.01 992.68 992.58 993.15 993.77 994.34 995.08 996.11 996.98 997.75 998.59 999.36 1000.17 1001.61 1002.19 1002.79 1003.46 1004.04 1004.55 1005.12 1005.72 1006.24 1006.79 1007.29 1007.60 1008.28 1008.37 1008.56 1008.77 1008.89 1009.23 1009.54 1009.57 1010.12 1010.85 1011.33 1011.78 1012.13 1011.97 1012.51
996.48 996.02 994.35 992.58 992.26 992.24 992.69 993.88 994.22 994.94 995.90 996.78 997.60 998.62 999.55 1000.61 1001.69 1002.33 1002.87 1003.35 1003.84 1004.37 1004.92 1005.52 1005.98 1006.54 1007.00 1007.30 1007.61 1007.95 1008.23 1008.80 1009.26 1009.43 1009.56 1009.51 1010.13 1010.74 1010.94 1011.49 1011.76 1012.13 1012.94
995.66 995.11 993.45 992.35 992.13 992.37 992.66 993.63 994.24 995.03 995.98 996.82 997.74 998.79 999.74 1001.10 1001.92 1002.47 1002.79 1003.30 1003.81 1004.38 1005.04 1005.57 1005.93 1006.35 1006.95 1007.47 1007.49 1007.98 1008.39 1008.98 1009.65 1009.55 1009.57 1009.60 1010.15 1010.52 1010.57 1011.47 1012.05 1012.13 1012.50
994.50 993.30 992.96 992.51 992.26 992.33 992.75 993.42 994.18 995.12 996.05 997.12 998.24 998.73 999.72 1001.05 1002.28 1002.56 1002.67 1003.04 1003.86 1004.40 1005.19 1005.83 1006.37 1006.39 1007.15 1007.54 1007.44 1007.90 1008.39 1009.05 1009.63 1010.14 1010.41 1010.67 1010.47 1010.86 1011.14 1011.07 1011.56 1011.70 1011.97
994.70 993.18 992.65 992.28 992.32 992.63 993.19 993.94 994.74 995.55 996.53 997.33 998.39 999.49 1000.22 1000.90 1002.36 1002.84 1002.79 1003.12 1003.72 1004.51 1005.18 1005.87 1006.43 1006.98 1007.34 1007.67 1007.77 1007.98 1008.37 1008.96 1009.55 1009.86 1010.27 1010.49 1010.76 1011.15 1011.32 1011.22 1011.12 1011.01 1011.30
993.76 992.72 991.95 992.01 992.35 992.86 993.63 994.27 995.13 995.81 996.85 997.66 998.86 1000.10 1001.07 1001.89 1002.48 1002.97 1003.33 1003.47 1004.02 1004.23 1004.93 1005.79 1006.45 1007.06 1007.40 1007.70 1007.96 1008.11 1008.49 1008.90 1009.35 1009.77 1010.09 1010.37 1010.78 1011.13 1011.27 1011.37 1011.32 1011.26 1011.27
992.88 992.45 991.76 992.14 992.56 993.14 993.84 994.61 995.49 996.08 996.76 998.21 998.88 1000.08 1001.27 1002.09 1002.78 1003.52 1003.87 1004.17 1004.37 1004.24 1004.93 1005.84 1006.65 1007.19 1007.57 1007.84 1008.01 1008.21 1008.56 1008.75 1009.13 1009.59 1010.08 1010.32 1010.77 1010.96 1011.25 1011.49 1011.34 1011.60 1011.88
992.91 992.53 992.06 992.36 992.88 993.39 994.13 994.77 995.16 996.30 997.06 997.96 999.03 1000.21 1001.24 1002.18 1003.00 1003.69 1004.21 1004.54 1004.82 1005.15 1005.89 1006.47 1006.91 1007.29 1007.55 1007.86 1008.39 1008.54 1008.18 1008.31 1008.73 1009.36 1009.86 1010.29 1010.78 1011.20 1011.40 1011.35 1011.30 1011.49 1011.74
992.80 992.05 992.22 992.68 993.14 993.76 994.31 994.74 995.99 997.03 997.23 997.96 998.90 999.66 1000.80 1001.90 1002.70 1003.08 1003.65 1004.11 1004.30 1005.12 1005.85 1006.56 1007.02 1007.39 1007.75 1007.99 1008.14 1008.00 1008.16 1008.70 1008.90 1009.32 1009.78 1010.26 1010.71 1011.07 1011.39 1011.60 1011.54 1011.35 1011.30
992.66 992.34 992.35 992.81 993.62 993.85 995.02 996.14 997.95 998.14 998.13 998.55 999.05 999.44 1000.83 1001.65 1002.63 1003.30 1003.85 1004.17 1004.72 1005.28 1005.67 1006.29 1006.76 1007.11 1007.38 1007.77 1007.93 1008.15 1008.32 1008.71 1009.04 1009.44 1009.88 1010.31 1010.66 1011.00 1011.32 1011.51 1011.51 1011.30 1011.43
992.15 992.31 992.65 993.29 993.54 994.89 995.47 996.53 998.27 999.78 1000.03 1000.14 1000.44 1000.83 1001.17 1002.17 1003.06 1003.68 1004.18 1004.60 1005.03 1005.26 1005.59 1006.14 1006.45 1006.79 1007.22 1007.63 1007.92 1008.00 1008.21 1008.55 1009.13 1009.50 1009.93 1010.31 1010.69 1011.00 1011.36 1011.45 1011.51 1011.63 1011.62
991.65 992.53 992.93 993.17 993.96 994.57 995.40 996.55 997.71 999.05 1000.10 1001.15 1001.86 1001.87 1002.34 1002.88 1003.53 1004.00 1004.48 1004.99 1005.56 1005.49 1005.61 1005.94 1006.28 1006.65 1007.13 1007.51 1007.90 1007.99 1008.30 1008.69 1009.05 1009.47 1009.93 1010.18 1010.41 1010.89 1011.22 1011.28 1011.16 1011.40 1011.40
991.57 991.97 992.20 993.17 994.00 994.61 995.59 996.57 997.52 998.79 999.96 1001.01 1002.12 1002.99 1003.62 1003.77 1004.00 1004.42 1004.55 1004.61 1005.03 1005.30 1005.56 1005.91 1006.16 1006.61 1007.02 1007.29 1007.68 1008.09 1008.46 1008.97 1009.13 1009.41 1009.83 1010.19 1010.50 1010.71 1010.82 1011.13 1011.24 1011.43 1011.56
991.44 991.79 991.71 993.19 994.55 995.22 995.94 996.81 997.73 998.83 999.93 1000.71 1001.69 1002.79 1003.59 1003.75 1004.23 1004.36 1004.38 1004.58 1004.85 1005.20 1005.43 1005.80 1006.16 1006.52 1006.91 1007.30 1007.76 1008.09 1008.42 1008.86 1009.12 1009.42 1009.71 1010.03 1010.32 1010.49 1010.65 1010.88 1010.96 1011.07 1011.24
991.79 992.62 993.32 993.90 994.79 995.73 996.45 997.18 997.98 998.92 999.80 1000.69 1001.77 1002.68 1003.01 1003.22 1003.77 1004.03 1004.36 1004.66 1004.81 1005.10 1005.49 1005.82 1006.07 1006.37 1006.88 1006.82 1007.38 1007.73 1008.33 1008.63 1009.02 1009.26 1009.55 1009.84 1010.06 1010.11 1010.21 1010.37 1010.61 1010.76 1010.95
991.73 992.41 992.89 993.77 995.20 996.03 996.81 997.53 998.24 999.00 999.94 1000.95 1002.16 1002.73 1003.26 1003.46 1003.70 1004.11 1004.57 1004.76 1004.80 1005.20 1005.57 1005.94 1006.28 1006.61 1006.78 1007.07 1007.47 1007.89 1008.22 1008.48 1008.83 1009.10 1009.35 1009.65 1009.76 1009.82 1010.00 1010.23 1010.42 1010.58 1010.69
991.50 992.35 993.76 994.85 995.57 996.52 997.09 997.83 998.55 999.38 1000.30 1001.34 1001.96 1002.81 1003.27 1003.56 1004.22 1004.93 1005.52 1005.85 1006.04 1006.31 1006.47 1006.61 1006.93 1007.24 1007.46 1007.63 1007.56 1007.85 1008.12 1008.41 1008.69 1008.94 1009.13 1009.36 1009.57 1009.78 1009.91 1009.99 1010.01 1010.28 1010.43
992.10 993.02 994.29 995.32 996.10 996.71 997.40 998.23 999.19 1000.01 1000.73 1001.45 1002.26 1002.81 1003.51 1004.44 1005.23 1005.92 1006.46 1006.90 1007.14 1007.41 1007.67 1007.87 1008.07 1008.24 1008.27 1008.21 1008.30 1008.39 1008.29 1008.57 1008.50 1008.65 1008.96 1009.23 1009.33 1009.46 1009.44 1009.70 1009.92 1010.08 1010.35
992.90 993.72 994.79 995.79 996.66 997.38 998.20 998.99 999.78 1000.51 1001.19 1001.96 1002.81 1003.75 1004.58 1005.39 1006.21 1006.97 1007.49 1007.85 1008.13 1008.36 1008.73 1008.88 1009.26 1009.26 1009.17 1009.13 1009.17 1009.13 1009.39 1009.31 1009.07 1009.14 1009.13 1009.48 1009.74 1009.93 1010.04 1010.39 1010.68 1010.93 1011.13
993.74 994.42 995.52 996.36 997.26 998.04 998.80 999.57 1000.35 1001.22 1001.99 1002.96 1003.96 1004.85 1005.55 1006.36 1007.23 1007.86 1008.45 1008.74 1009.18 1009.66 1010.02 1010.27 1010.43 1010.54 1010.51 1010.55 1010.47 1010.19 1009.86 1009.62 1009.70 1009.75 1009.86 1010.30 1010.59 1010.96 1011.32 1011.63 1011.79 1011.98 1012.20
Wind_Speed
18 18 16 18 18 16 15 14 14 12 13 14 14 12 12 12 13 13 11 11 12 9 7 9 10 9 6 6 5 5 5 5 6 3 1 2 3 4 2 2 2 3 3
17 18 20 18 18 16 15 15 14 14 14 15 14 12 13 14 15 14 13 12 13 10 10 12 11 7 8 7 6 7 6 5 4 6 4 3 2 5 3 4 3 3 3
20 18 20 18 17 17 16 15 16 16 15 14 14 14 15 16 16 14 14 12 11 10 10 12 11 10 9 7 7 7 6 5 5 4 4 2 2 4 3 4 3 4 4
20 17 21 18 18 17 16 16 16 15 15 14 14 14 15 16 15 14 13 12 10 9 9 10 10 11 10 9 8 8 6 6 6 6 4 5 2 3 4 3 3 2 2
18 16 21 17 18 17 16 16 15 15 13 13 14 14 15 14 12 14 12 11 10 9 9 9 9 9 7 8 7 8 8 7 7 7 5 4 3 3 6 4 4 3 3
17 16 21 17 16 16 15 16 14 14 15 16 16 16 16 10 13 14 12 10 10 11 10 10 8 7 7 7 6 6 7 9 8 7 5 8 8 4 4 7 7 6 4
17 18 21 13 15 16 15 15 15 15 15 16 15 15 16 13 16 16 14 9 11 10 10 10 8 6 8 9 6 5 6 5 6 9 8 9 10 6 7 8 4 8 4
16 20 18 11 12 14 14 15 15 14 15 13 15 15 13 11 16 16 13 11 9 9 9 10 9 9 9 9 8 6 7 7 7 6 6 7 8 7 9 4 8 6 7
19 19 11 8 10 13 15 15 14 12 11 11 14 14 13 11 13 15 13 10 9 9 8 8 8 9 9 8 7 7 6 6 5 3 2 5 9 11 10 9 5 7 5
20 16 11 9 9 14 14 12 11 11 13 11 10 12 12 13 10 13 11 8 9 8 7 7 1 4 10 9 7 8 6 5 6 4 3 3 6 7 10 9 9 6 6
17 15 12 8 8 8 9 9 10 12 12 12 12 9 10 11 10 9 10 9 8 8 7 5 4 5 8 9 6 7 5 7 6 6 5 4 5 7 7 5 6 8 9
18 12 12 8 7 8 11 11 12 15 14 13 12 9 8 9 9 8 9 7 9 8 7 5 5 8 8 9 7 9 12 10 6 6 5 4 5 5 4 5 4 1 5
14 10 9 9 10 10 12 14 12 12 13 11 11 10 8 6 6 7 9 10 8 7 6 7 10 7 8 6 10 11 11 7 6 6 5 3 4 5 6 6 6 6 5
9 9 8 8 10 11 10 11 12 11 11 12 11 10 9 8 8 7 6 6 9 8 10 7 6 6 4 8 7 8 7 6 6 6 6 6 6 5 4 4 5 5 5
6 1 8 7 9 9 7 10 10 11 12 12 11 11 11 8 8 9 9 8 8 8 9 6 5 4 5 6 6 6 5 6 6 6 6 6 5 6 5 5 5 6 6
7 3 7 8 8 9 10 11 20 11 15 14 12 10 7 11 13 12 10 12 15 14 5 5 5 6 7 5 6 6 5 6 5 5 6 5 5 5 5 4 4 5 6
8 8 8 9 8 9 11 12 10 12 19 15 11 12 10 13 13 12 13 14 13 9 5 5 6 6 6 6 6 6 6 6 6 5 5 5 5 5 6 5 5 4 4
9 10 10 9 9 11 11 11 10 10 8 7 12 7 11 15 13 13 13 11 3 3 5 6 6 6 6 7 6 5 6 6 6 6 5 4 6 6 5 6 6 5 5
8 10 12 13 10 10 11 11 10 11 11 8 8 9 9 12 11 11 7 6 6 5 5 6 6 6 6 7 6 5 6 5 5 5 5 5 5 4 5 4 4 4 4
12 12 12 12 11 10 10 10 10 10 10 10 10 8 6 7 6 6 5 6 6 5 5 5 6 6 7 6 6 5 5 6 6 5 5 4 5 5 5 5 5 6 5
11 11 13 12 10 9 9 10 11 10 10 9 9 6 7 9 8 7 6 5 5 5 4 5 5 7 6 6 8 7 6 5 5 5 5 5 5 6 6 7 6 6 5
12 12 12 12 10 10 10 10 10 10 10 10 8 3 8 8 8 7 6 5 6 5 5 4 4 4 5 5 6 5 5 5 5 5 5 5 5 4 4 4 5 5 4
13 13 12 10 10 11 11 10 10 9 9 10 9 8 7 8 9 8 7 6 7 7 6 7 6 5 4 3 3 4 5 4 4 4 4 4 4 4 4 4 5 3 6
12 13 12 10 10 11 9 9 9 10 11 10 9 8 9 9 9 10 7 6 8 8 8 8 7 8 5 4 4 3 3 3 2 3 4 4 4 5 5 4 3 4 4
11 12 12 12 10 10 10 10 10 10 10 10 10 11 10 10 10 9 8 8 8 10 11 9 8 9 11 11 9 8 6 4 4 3 2 5 8 9 8 7 7 8 9
11 12 11 10 10 10 10 10 11 10 11 11 11 10 10 11 10 9 9 9 9 10 11 9 13 16 14 12 13 10 10 11 10 10 10 9 9 9 9 10 13 8 10
Wind_Direction
308 297 281 267 247 232 224 217 207 193 183 183 191 173 166 172 179 182 182 174 177 172 156 180 193 181 182 180 186 194 202 217 238 138 148 189 182 148 153 111 117 151 170
308 304 298 274 248 231 219 214 201 196 189 188 190 173 173 178 177 177 179 174 175 165 172 188 186 178 179 180 192 196 208 194 233 217 151 159 195 157 151 106 86 117 159
308 308 300 275 241 224 212 201 195 194 184 187 182 180 180 179 176 178 178 175 173 165 175 185 182 181 180 179 194 193 198 191 204 223 161 149 112 153 107 84 65 71 83
307 307 303 272 235 220 204 193 184 182 180 183 180 182 182 177 174 176 173 169 159 160 177 183 182 189 185 184 194 203 196 194 196 216 184 158 130 154 146 128 111 73 76
301 310 301 270 236 220 202 192 178 171 178 175 173 180 177 173 171 173 168 154 153 159 177 181 188 190 177 189 193 198 193 199 201 197 178 163 159 160 171 154 138 119 73
301 307 297 266 226 208 192 183 167 164 171 172 174 173 171 171 145 146 151 150 158 174 177 183 180 169 179 170 197 219 207 197 197 190 196 194 182 155 155 165 150 155 137
305 307 290 252 213 193 185 173 165 161 164 167 169 169 171 161 154 147 144 151 168 175 178 176 176 180 177 177 180 212 206 206 202 188 191 198 185 164 151 158 180 177 123
303 293 285 233 196 176 162 170 161 156 162 158 162 169 164 159 153 147 151 158 167 174 177 179 181 177 187 186 185 186 204 194 188 185 192 198 171 158 177 167 164 115 108
281 275 287 250 181 167 161 164 157 144 149 158 163 153 143 142 143 144 161 160 161 164 168 177 182 182 157 184 190 192 176 167 54 80 282 172 155 177 164 151 149 155 152
292 293 288 284 185 171 163 152 144 149 150 144 129 135 138 138 146 155 166 156 160 159 160 152 81 198 148 177 195 186 172 165 152 128 106 91 153 160 163 180 157 174 156
294 292 278 253 189 159 135 139 143 134 135 124 109 108 122 138 147 153 150 163 165 163 162 161 168 148 165 176 208 180 166 145 142 134 123 128 156 162 185 191 192 184 183
284 278 269 212 153 147 147 140 138 136 127 111 115 117 122 132 134 134 144 149 155 158 164 159 145 148 161 166 176 139 136 140 150 134 134 140 154 153 166 161 183 231 17
277 280 250 166 150 152 146 138 136 133 123 134 138 129 130 123 119 121 142 143 158 150 142 120 120 139 136 130 137 139 149 149 146 147 146 133 161 154 137 136 170 148 120
261 270 171 148 149 147 144 144 133 133 135 136 137 138 140 143 146 155 141 122 113 101 108 115 127 130 125 119 120 159 162 159 162 158 156 147 138 145 152 165 161 164 172
218 196 132 139 133 116 90 119 127 134 143 146 148 148 150 155 165 153 148 157 148 133 124 126 134 128 129 136 150 151 140 149 156 152 153 149 149 152 155 164 175 180 186
183 181 121 108 114 113 109 82 41 69 87 92 119 142 141 118 130 136 138 121 124 146 133 145 141 145 144 145 150 147 155 151 152 155 151 149 151 154 153 171 189 200 188
170 161 118 117 104 139 126 120 105 55 62 61 86 110 123 136 129 129 127 128 146 150 143 142 145 145 140 146 156 161 157 151 147 148 155 160 161 157 162 182 180 191 202
168 151 132 129 156 137 132 127 123 124 121 108 45 84 117 127 125 119 123 118 132 131 141 142 144 142 148 152 156 164 150 153 151 153 165 179 176 168 188 189 196 183 190
165 153 143 143 148 129 129 131 129 129 130 119 117 80 76 91 106 127 158 151 149 134 133 142 143 145 153 172 161 159 159 164 160 162 167 169 175 193 191 193 183 189 184
157 139 125 127 131 128 129 135 135 133 133 134 130 127 140 135 130 140 141 145 147 136 130 138 148 149 155 159 156 156 164 165 160 167 167 170 178 194 196 194 196 195 202
126 127 128 127 121 128 134 139 139 137 136 130 128 140 141 135 137 133 136 137 135 136 132 138 155 155 159 168 158 165 160 171 170 169 170 178 187 197 199 202 196 207 197
135 140 134 129 128 134 132 134 134 134 129 125 125 117 135 128 132 120 98 102 111 112 124 125 132 145 165 162 153 152 158 167 172 176 177 186 203 209 203 209 204 220 196
133 124 119 125 124 125 131 130 127 125 124 128 129 135 132 130 96 88 75 62 67 62 46 66 75 71 54 53 122 152 160 162 171 176 180 184 199 211 212 226 233 187 220
129 127 121 120 131 130 122 120 116 118 126 128 129 124 111 100 93 86 74 68 71 69 58 59 55 60 50 60 54 44 59 56 142 167 185 194 211 198 220 208 218 226 217
129 130 129 127 123 117 114 117 120 121 116 108 102 100 98 95 90 81 76 71 71 72 65 62 60 56 56 57 53 52 41 46 59 61 101 78 67 59 56 64 68 65 61
133 124 127 123 122 123 124 124 119 112 108 103 98 94 96 98 91 87 82 80 80 73 69 66 67 63 60 57 59 53 58 61 67 66 82 79 80 75 76 76 74 70 66